Lake Hood, AK

9:59 AM AKDT on June 27, 2017 (GMT -0800)
Lake Hood

Weather History for PALH - November, 2012

Change the Weather History Date:

Sunday, November 4, 2012

  Actual Average Record
Temperature  
Mean Temperature 23 °F -  
Max Temperature 28 °F 30 °F 46 °F (2002)
Min Temperature 18 °F 21 °F 9 °F (2006)
Degree Days  
Heating Degree Days 42    
Moisture  
Dew Point 13 °F    
Average Humidity 62    
Maximum Humidity 81    
Minimum Humidity 50    
Precipitation  
Precipitation 0.00 in - - ()
Sea Level Pressure  
Sea Level Pressure 29.38 in    
Wind  
Wind Speed 4 mph (NE)    
Max Wind Speed 9 mph    
Max Gust Speed -    
Visibility 10 miles    
Events      
Averages and records for this station are not official NWS values.
T = Trace of Precipitation, MM = Missing Value Source: NWS Daily Summary

Daily Weather History Graph

Daily Weather History Graph

Search for Another Location

Airport or City:

Trip Planner

Search our weather history database for the weather conditions in past years. The results will help you decide how hot, cold, wet, or windy it might be!

Date:

Astronomy

Nov. 04, 2012 Rise Set
Actual Time 8:37 AM AKST 4:48 PM AKST
Civil Twilight 7:49 AM AKST 5:36 PM AKST
Nautical Twilight 6:57 AM AKST 6:28 PM AKST
Astronomical Twilight 6:07 AM AKST 7:18 PM AKST
Moon 9:22 PM AKST (11/4) 1:45 PM AKST (11/4)
Length of Visible Light 9h 47m
Length of Day
8h 10m
Waning Gibbous, 70% of the Moon is Illuminated
Nov 4
Waning Gibbous
Nov 6
Last Quarter
Nov 13
New
Nov 20
First Quarter
Nov 28
Full

Hourly Weather History & Observations

Time (AKST) Temp. Windchill Dew Point Humidity Pressure Visibility Wind Dir Wind Speed Gust Speed Precip Events Conditions
12:53 AM 27.0 °F 23.0 °F 16.0 °F 63% 29.40 in 10.0 mi ENE 3.5 mph - N/A   Mostly Cloudy
1:53 AM 26.1 °F 20.5 °F 16.0 °F 66% 29.40 in 10.0 mi ENE 4.6 mph - N/A   Partly Cloudy
1:53 AM 25.0 °F 19.3 °F 16.0 °F 69% 29.40 in 10.0 mi NE 4.6 mph - N/A   Mostly Cloudy
3:53 AM 23.0 °F 17.0 °F 14.0 °F 68% 29.39 in 10.0 mi NNE 4.6 mph - N/A   Clear
4:53 AM 23.0 °F 18.4 °F 14.0 °F 68% 29.38 in 10.0 mi East 3.5 mph - N/A   Clear
5:53 AM 23.0 °F 14.7 °F 14.0 °F 68% 29.38 in 10.0 mi NNE 6.9 mph - N/A   Clear
6:53 AM 19.9 °F 14.9 °F 12.9 °F 74% 29.38 in 10.0 mi East 3.5 mph - N/A   Clear
7:53 AM 19.9 °F 14.9 °F 12.9 °F 74% 29.38 in 10.0 mi East 3.5 mph - N/A   Clear
8:53 AM 18.0 °F 12.7 °F 12.9 °F 81% 29.37 in 10.0 mi East 3.5 mph - N/A   Clear
9:53 AM 21.9 °F 14.5 °F 14.0 °F 72% 29.37 in 10.0 mi NNE 5.8 mph - N/A   Clear
10:53 AM 25.0 °F 18.1 °F 14.0 °F 63% 29.37 in 10.0 mi NE 5.8 mph - N/A   Partly Cloudy
11:53 AM 26.1 °F 21.9 °F 14.0 °F 60% 29.37 in 10.0 mi East 3.5 mph - N/A   Clear
12:53 PM 28.0 °F 22.8 °F 14.0 °F 56% 29.36 in 10.0 mi North 4.6 mph - N/A   Clear
1:53 PM 28.9 °F - 12.9 °F 51% 29.35 in 10.0 mi Calm Calm - N/A   Clear
2:53 PM 28.9 °F 23.9 °F 12.9 °F 51% 29.35 in 10.0 mi ENE 4.6 mph - N/A   Clear
3:53 PM 28.0 °F 22.8 °F 12.9 °F 53% 29.34 in 10.0 mi NE 4.6 mph - N/A   Clear
4:53 PM 25.0 °F 20.7 °F 12.0 °F 58% 29.35 in 10.0 mi East 3.5 mph - N/A   Clear
5:53 PM 23.0 °F - 12.0 °F 63% 29.37 in 10.0 mi Calm Calm - N/A   Clear
6:53 PM 21.0 °F - 12.0 °F 68% 29.38 in 10.0 mi Calm Calm - N/A   Clear
7:53 PM 24.1 °F 16.0 °F 9.0 °F 53% 29.39 in 10.0 mi NNE 6.9 mph - N/A   Clear
8:53 PM 23.0 °F 14.7 °F 9.0 °F 55% 29.41 in 10.0 mi NNE 6.9 mph - N/A   Clear
9:53 PM 23.0 °F 13.1 °F 8.1 °F 53% 29.43 in 10.0 mi NNE 9.2 mph - N/A   Clear
10:53 PM 23.0 °F 14.7 °F 7.0 °F 50% 29.44 in 10.0 mi NE 6.9 mph - N/A   Clear